Regional Weather Roundup
Issued by NWS Cleveland, OH

Home | Current Version | Previous Version | Graphics & Text | Print | Product List | Glossary On
Versions: 1 2 3 4 5 6 7 8 9 10 11 12 13 14 15 16 17 18 19 20 21 22 23 24 25 26 27 28 29 30 31 32 33 34 35 36 37 38 39 40 41 42 43 44 45 46 47 48 49 50
000
ASUS41 KCLE 212010
RWRCLE
OHIO REGIONAL WEATHER ROUNDUP
NATIONAL WEATHER SERVICE WILMINGTON, OH
300 PM EST WED FEB 21 2018

NOTE: "FAIR" INDICATES FEW OR NO CLOUDS BELOW 12,000 FEET WITH NO
SIGNIFICANT WEATHER AND/OR OBSTRUCTIONS TO VISIBILITY.

OHZ001>008-015>018-024>027-034-035-043-044-212100-
   NORTHWEST OHIO

CITY           SKY/WX    TMP DP  RH WIND       PRES   REMARKS
DEFIANCE       CLOUDY    39  34  82 N7        30.49S
FINDLAY        CLOUDY    41  36  82 N9        30.47R
TOLEDO EXPRESS PTSUNNY   40  35  83 N12       30.48R
TOLEDO EXEC    CLOUDY    42  34  73 N9        30.49S
LIMA           LGT RAIN  39  38  96 N9        30.46R
$$

OHZ009>014-019>023-028>033-038-089-212100-
   NORTHEAST OHIO

CITY           SKY/WX    TMP DP  RH WIND       PRES   REMARKS
CLE-HOPKINS    LGT RAIN  38  36  92 N13       30.49R
CLE-LAKEFRONT  LGT RAIN  36  34  92 N8        30.48R
CUY CO. ARPT   DRIZZLE   37  36  93 N12       30.48R FOG
LORAIN-ELYRIA  LGT RAIN  37  32  82 NE17      30.47R
ASHTABULA      MIX PCPN  36  35  96 N7        30.46R
AKRON-CANTON   LGT RAIN  41  36  82 N10       30.42R
WOOSTER        CLOUDY    40  37  89 N10       30.43R
MANSFIELD      CLOUDY    40  39  97 N10       30.42S
YOUNGSTOWN     LGT RAIN  38  36  92 NW14      30.42R
$$

OHZ042-051>053-060>062-070>072-077>081-212100-
  SOUTHWEST OHIO

CITY           SKY/WX    TMP DP  RH WIND       PRES   REMARKS
CINC-COVINGTON CLOUDY    47  46  97 N10       30.39S
CINC-LUNKEN    CLOUDY    48  45  89 N9        30.41F
HAMILTON       LGT RAIN  47  38  71 N5        30.43S
DAYTON         CLOUDY    42  42 100 N12       30.44R
WRIGHT-PAT AFB CLOUDY    45  41  87 N8        30.41F
DAYTON GENERAL LGT RAIN  46  42  86 N10       30.40S
WILMINGTON     CLOUDY    46  45  96 N14       30.40R
$$

OHZ036-037-039>041-045>050-054>059-063>069-073>076-082>088-212100-
  CENTRAL AND SOUTHEAST OHIO

CITY           SKY/WX    TMP DP  RH WIND       PRES   REMARKS
COLUMBUS       LGT RAIN  48  45  89 N10       30.39F
OSU AIRPORT    CLOUDY    46  43  89 N10       30.40F
BOLTON FIELD   CLOUDY    46  45  93 N14       30.40F
RICKENBACK AFB CLOUDY    47  46  97 N12       30.40S
NEWARK         CLOUDY    48  43  82 N12       30.39R
MARION         CLOUDY    42  39  89 N14       30.43S
LANCASTER      CLOUDY    50  48  93 N14       30.39R
ZANESVILLE     CLOUDY    50  46  86 N15       30.38R
NEW PHILLY     CLOUDY    45  41  86 N9        30.41R
$$




USA.gov is the U.S. government's official web portal to all federal, state and local government web resources and services.